Flag for Canada Weather past 2 weeks in Pond Inlet, Nunavut Territory, Canada

Now
-22 °F

Overcast.


Feels Like: -22 °F
Forecast: -28 / -17 °F
Wind: 2 mph from Southwest

Location: Pond Inlet

Current Time: Mar 30, 2015 at 5:51:06 AM

Latest Report: Mar 30, 2015 at 5:00 AM


Visibility: 9 mi

Pressure: 29.63 "Hg

Humidity: 75%

Dew point: -27 °F

Location of Pond InletLocation

Historic Weather in Pond Inlet — Graph

°F

Pond Inlet temperature yesterday

Maximum temperature yesterday: -18 °F (at 1:00 PM)
Minimum temperature yesterday: -27 °F (at 9:00 PM)
Average temperature yesterday: -22 °F

Past Weeks' High & Low Weather Summary

 TemperatureHumidityPressure
High12 °F (Mar 17, 6:00 AM)92% (Mar 16, 7:57 AM)30.23 "Hg (Mar 16, 7:57 AM)
Low-27 °F (Mar 22, 5:00 AM)67% (Mar 27, 7:00 AM)29.31 "Hg (Mar 16, 4:00 PM)
Average-14 °F78%29.75 "Hg
* Reported Mar 15 4:00 AM — Mar 30 4:00 AM, Pond Inlet, Weather by CustomWeather, © 2015

Note: Actual official high and low records may vary slightly from our data, if they occured in-between our weather recording intervals... More about our weather records

Advertising

Pond Inlet weather history for previous 24 hours

 ConditionsComfort  
Time TempWeatherWind HumidityBarometerVisibility
4:00 AM
Mon, Mar 30
-18 °FOvercast.3 mph75%29.62 "Hg8 mi
3:52 AM-18 °FOvercast.6 mph75%29.62 "Hg6 mi
3:00 AM-20 °FOvercast.2 mph75%29.62 "Hg8 mi
2:00 AM-22 °FOvercast.No wind75%29.62 "Hg9 mi
1:01 AM-20 °FLight snow. Overcast.3 mph75%29.62 "Hg5 mi
12:00 AM-20 °FLight snow. Overcast.6 mph75%29.63 "Hg9 mi
11:03 PM
Sun, Mar 29
-20 °FLight snow. Overcast.6 mph75%29.64 "Hg8 mi
10:00 PM-22 °FOvercast.7 mph75%29.64 "Hg9 mi
9:00 PM-27 °FPassing clouds.6 mph67%29.65 "Hg9 mi
8:00 PM-22 °FClear.5 mph75%29.65 "Hg9 mi
7:01 PM-22 °FScattered clouds.5 mph75%29.64 "Hg9 mi
6:00 PM-20 °FScattered clouds.5 mph75%29.65 "Hg9 mi
5:00 PM-18 °FPassing clouds.7 mph75%29.64 "Hg9 mi
4:00 PM-18 °FOvercast.8 mph75%29.65 "Hg9 mi
3:00 PM-18 °FPassing clouds.8 mph75%29.64 "Hg9 mi
2:00 PM-20 °FMostly cloudy.6 mph75%29.64 "Hg4 mi
1:00 PM-18 °FPartly sunny.6 mph75%29.64 "Hg9 mi
12:00 PM-20 °FLight snow. Passing clouds.6 mph68%29.65 "Hg9 mi
11:49 AM-20 °FLight snow. Sunny.6 mph68%29.65 "Hg7 mi
11:01 AM-20 °FLight snow. Overcast.6 mph75%29.65 "Hg6 mi
10:03 AM-20 °FLight snow. Partly sunny.9 mph75%29.65 "Hg6 mi
9:00 AM-22 °FLight snow. Passing clouds.7 mph68%29.65 "Hg9 mi
8:02 AM-26 °FLight snow. Partly sunny.6 mph75%29.65 "Hg9 mi
7:00 AM-24 °FLight snow. Cloudy.7 mph75%29.65 "Hg7 mi
6:00 AM-22 °FScattered clouds.5 mph75%29.67 "Hg9 mi
5:00 AM-26 °FClear.7 mph67%29.66 "Hg9 mi
Weather by CustomWeather, © 2015

See weather overviewHow to use our weather pages